Location: Baggett Branch
(32.6074°N, 97.0167°W)
Time: 21:39:43
(UTC+00:00)

COSMOS 2455 - Pass Details

Date: 10 February 2026
Orbit: 899 x 909 km, 67.1° (Epoch: 11 March)

Event Time Altitude Azimuth Distance (km) Brightness Sun altitude
Exits shadow 12:06:52 - 227° (SW) 2,920 5.1 -15.0°
Reaches altitude 10° 12:07:51 10° 231° (SW) 2,579 4.8 -14.8°
Maximum altitude 12:13:28 41° 300° (WNW) 1,283 3.2 -13.6°
Drops below altitude 10° 12:19:08 10° 10° (N) 2,594 5.3 -12.4°
Sets 12:21:48 0° 18° (NNE) 3,539 6.0 -11.9°
